Starlink 1171

operational
NORAD ID: 45062 Int'l Des: 2020-006 Owner: SPXS Country: US Constellation: starlink
LEOCIRCULARSTARLINK_TYPE

关于 Starlink 1171

正在加载描述...

实时位置

正在加载3D地球...

即将过境

高度历史

Altitude vs Time

uPlot chart will show altitude changes over time

两行轨道根数

1 45062U 20006U 25304.09621230 .00085840 00000-0 29659-2 0 9990
2 45062 53.0551 146.1506 0002288 143.4650 216.6506 15.29209309316965
Epoch: Oct 31, 2025 • Age: 13 hours

当前状态

高度 479.8 km
速度 7.63 km/s
星下点 27.59°N, 98.63°W
发射日期 Jan 29, 2020
运行时间 5.7 years
类型 internet

技术详情

分类 Payload
质量 260.00 kg
干质量 248.00 kg
总质量 260.00 kg
长度 0.20 m
直径 2.80 m
跨度 9.00 m
形状 Box + pan
制造商 SPXS
平台类型 Starlink
阶段状态 In Orbit
所有者/国家 SPXS/US

大型星座

Loading constellations...